Simultaneous Nadir Overpasses (SNOs) Predictions

Prediction of SNOs between METOP-A and NPP Satellite Orbit:

Table of predicted SNOs for the next 14.0 days since TLE Epoch: 8/16/2021
Index Date (METOP-A) Time (METOP-A) Lat,Lon (METOP-A) SZA (METOP-A ) Date (NPP) Time (NPP) Lat,Lon (NPP) SZA (NPP ) Distance(km) Time Diff (sec)
1 08/29/2021 22:15:31 -77.46, 7.76 110.94 08/29/2021 22:14:25 -77.46, 4.23 110.63 85.20 66
2 08/29/2021 23:06:16 77.23, 174.12 68.93 08/29/2021 23:05:05 77.24, 172.56 69.09 38.24 71
3 08/29/2021 23:57:00 -77.13, -18.94 111.12 08/29/2021 23:55:47 -77.13, -19.65 111.05 17.76 73
4 08/30/2021 00:47:42 77.03, 147.98 68.83 08/30/2021 00:46:30 77.02, 148.09 68.84 2.89 72
5 08/30/2021 01:38:24 -77.02, -44.71 111.17 08/30/2021 01:37:15 -77.04, -44.68 111.13 2.35 69
6 08/30/2021 02:29:03 77.05, 122.73 68.87 08/30/2021 02:28:00 77.03, 122.71 68.87 3.01 63
7 08/30/2021 03:19:45 -77.05, -69.96 111.13 08/30/2021 03:18:45 -77.05, -70.06 111.10 2.61 60
8 08/30/2021 04:10:25 77.03, 97.31 68.88 08/30/2021 04:09:30 77.03, 97.32 68.90 0.42 55



Historial Predications of SNOs between METOP-A and NPP
